Showing default

SOYUZ MS-28, 66664

Orbit data source: Space-Track

SOYUZ MS-28, 66664 is a payload satellite owned by RKKE (CIS) in LEO that was launched on Thu, 27 Nov 2025 UTC via a SOYUZ-2-1A launch vehicle from the Tyuratam Missile And Space Complex (TTMTR). Payload-class satellites include a variety of spacecraft equipped with specific instruments for various scientific and technological missions. These include communications satellites like Starlink; space stations such as the ISS; scientific satellites like the Hubble; Earth observation satellites from companies like Planet Labs, Umbra, and HawkEye 360; GPS; miniature CubeSats for education and research; and military/defense satellites.

Loading next visibility...
Identifier
66664, 2025-275A
Orbit
LEO
Country
Flag of CISCIS
Related business
Manufacturer
RKKE
Mission
Operational Civil Spaceship
Bus & Motor
7K-S A48, SA
Mass
7,152 kg wet, 2,900 kg dry
Launch date (UTC)
2025-11-27 (7 months ago)
Launch vehicle
SOYUZ-2-1A
Launch site
Tyuratam Missile And Space Complex (TTMTR)
Object type
Payload
Rocket body
Debris
Shape & HBR
Cyl + Cone + Sphere + 2 Pan, 14.5 m
Radar Cross Section
25.344 m², Large (>1 m²)

Expand to show TLE details & history
Last TLE update: 10 hours ago

TLE from 10 hours ago
0 SOYUZ MS-28
1 66664U 25275A   26171.41461525  .00008813  00000-0  16600-3 0  9990
2 66664  51.6327 284.1189 0004557 208.5194 151.5545 15.49333088572089
Epoch: 2026-06-20T09:57Z
TLE epoch observation values (Epoch: 2026-06-20T09:57:02.757Z)
Latitude
-0.00009°
Longitude
-133.77224°
Altitude
422.14 km
Speed
7.658 km/s
True Right ascension
18h 56m 28s
True Declination
0° 00' 00"
Sunlit
Object was in full shadow at epoch
Visualization orbit readout
Latitude
Unknown
Longitude
Unknown
Altitude
Unknown
Speed
Unknown
Apparent Right ascension
Unknown
Apparent Declination
Unknown
Sunlit
N/A
Visualization observer readout
Local Sidereal Time
07:13:12
Azimuth
Unknown
Elevation
Unknown
Doppler factor
Unknown
Orbital elements
Apogee altitude
422.282 km
Perigee altitude
416.087 km
Semi-major axis
6,797.322 km
Eccentricity
0.00046
Inclination
51.6327°
RAAN
284.1189°
Arg. of periapsis
208.5194°
True anomaly
151.57936°
Mean anomaly
151.5545°
Eccentric anomaly
151.56693°
Mean motion
3.8729 °/min
Orbital period
92.95 mins
BSTAR
0.000166
Loading maneuver chart data...
Computing Atmospheric mass density...
Loading historical data...
Loading historical data...
Loading historical data...
Loading historical data...
Loading historical data...
Loading historical data...
Loading historical data...
Other satellites on launch #275 in the year 2025 (2025-11-27 UTC)

Documentation

Showing up to 5 results
|